Showing default

EXPLORER 36 (GEOS 2), 3093

Orbit data source: Space-Track

EXPLORER 36 (GEOS 2), 3093 is a payload satellite owned by GSFC (US) in LEO that was launched on Thu, 11 Jan 1968 UTC via a THOR DELTA E1 launch vehicle from the Air Force Western Test Range (AFWTR). Payload-class satellites include a variety of spacecraft equipped with specific instruments for various scientific and technological missions. These include communications satellites like Starlink; space stations such as the ISS; scientific satellites like the Hubble; Earth observation satellites from companies like Planet Labs, Umbra, and HawkEye 360; GPS; miniature CubeSats for education and research; and military/defense satellites.

Loading next visibility...
Identifier
3093, 1968-002A
Orbit
LEO
Country
Flag of USUS
Related business
Manufacturer
APL
Mission
Civil Geodetic
Bus & Motor
ANNA, Unknown motor
Mass
212 kg wet, 212 kg dry
Launch date (UTC)
1968-01-11 (58 years ago)
Launch vehicle
THOR DELTA E1
Launch site
Air Force Western Test Range (AFWTR)
Object type
Payload
Rocket body
Debris
Shape & HBR
Oct Cyl + 1 Dome + 1 Ant, 4.5 m
Radar Cross Section
2.095 m², Large (>1 m²)

Expand to show TLE details & history
Last TLE update: 13 hours ago

TLE from 13 hours ago
0 EXPLORER 36 (GEOS 2)
1 03093U 68002A   25261.06594553 -.00000030  00000-0  15191-3 0  9998
2 03093 105.7953  38.6990 0319094 187.5200 281.8924 12.83591680702445
Epoch: 2025-09-18T01:34Z
TLE epoch observation values (Epoch: 2025-09-18T01:34:57.693Z)
Latitude
67.8843°
Longitude
-118.43638°
Altitude
1,295.367 km
Speed
7.235 km/s
True Right ascension
17h 30m 08s
True Declination
67° 46' 21"
Sunlit
Object was in daylight at epoch
Visualization orbit readout
Latitude
Unknown
Longitude
Unknown
Altitude
Unknown
Speed
Unknown
Apparent Right ascension
Unknown
Apparent Declination
Unknown
Sunlit
N/A
Visualization observer readout
Local Sidereal Time
07:21:36
Azimuth
Unknown
Elevation
Unknown
Doppler factor
Unknown
Orbital elements
Apogee altitude
1,570.64 km
Perigee altitude
1,079.045 km
Semi-major axis
7,702.979 km
Eccentricity
0.03191
Inclination
105.7953°
RAAN
38.699°
Arg. of periapsis
187.52°
True anomaly
278.28707°
Mean anomaly
281.8924°
Eccentric anomaly
280.09242°
Mean motion
3.21037 °/min
Orbital period
112.14 mins
BSTAR
0.00015191
Loading maneuver chart data...
Computing Atmospheric mass density...
Loading historical data...
Loading historical data...
Loading historical data...
Loading historical data...
Loading historical data...
Loading historical data...
Loading historical data...

Documentation

Showing up to 5 results
|